| time (UTC) | temp F | wind direction | speed MPH | gust MPH | rain 1hr in | rain 24hr in | rain mn in | humidity % | barometer mb |
| 20260903005504 | 92 | 225 | 0.0 | 3.0 | 0.00 | 0.00 | 0.00 | 43 | 1011.5 |
| 20260903005008 | 92 | 250 | 0.0 | 3.0 | 0.00 | 0.00 | 0.00 | 43 | 1011.5 |
| 20260903004518 | 93 | 257 | 0.0 | 6.0 | 0.00 | 0.00 | 0.00 | 42 | 1011.4 |
| 20260903004008 | 93 | 211 | 0.0 | 6.0 | 0.00 | 0.00 | 0.00 | 41 | 1011.5 |
| 20260903003509 | 93 | 284 | 0.0 | 5.0 | 0.00 | 0.00 | 0.00 | 41 | 1011.5 |
| 20260903003017 | 93 | 239 | 1.0 | 6.0 | 0.00 | 0.00 | 0.00 | 41 | 1011.5 |
| 20260903002511 | 94 | 132 | 1.0 | 6.0 | 0.00 | 0.00 | 0.00 | 40 | 1011.5 |
| 20260903002010 | 94 | 279 | 0.0 | 7.0 | 0.00 | 0.00 | 0.00 | 41 | 1011.5 |
| 20260903001520 | 94 | 174 | 2.0 | 7.0 | 0.00 | 0.00 | 0.00 | 39 | 1011.6 |
| 20260903001009 | 95 | 267 | 2.0 | 8.0 | 0.00 | 0.00 | 0.00 | 40 | 1011.5 |
| 20260903000511 | 95 | 192 | 2.0 | 8.0 | 0.00 | 0.00 | 0.00 | 39 | 1011.5 |
| 20260903000017 | 95 | 203 | 1.0 | 6.0 | 0.00 | 0.00 | 0.00 | 40 | 1011.5 |
| 20260902235510 | 95 | 167 | 0.0 | 7.0 | 0.00 | 0.00 | 0.00 | 39 | 1011.6 |
| 20260902235004 | 96 | 255 | 1.0 | 7.0 | 0.00 | 0.00 | 0.00 | 38 | 1011.6 |
| 20260902234509 | 96 | 283 | 2.0 | 6.0 | 0.00 | 0.00 | 0.00 | 38 | 1011.5 |
| 20260902234006 | 96 | 184 | 1.0 | 6.0 | 0.00 | 0.00 | 0.00 | 39 | 1011.6 |
| 20260902233508 | 97 | 315 | 2.0 | 8.0 | 0.00 | 0.00 | 0.00 | 38 | 1011.5 |
| 20260902233019 | 97 | 220 | 2.0 | 9.0 | 0.00 | 0.00 | 0.00 | 37 | 1011.5 |
| 20260902232509 | 97 | 225 | 2.0 | 9.0 | 0.00 | 0.00 | 0.00 | 36 | 1011.5 |
| 20260902232008 | 98 | 157 | 3.0 | 8.0 | 0.00 | 0.00 | 0.00 | 35 | 1011.5 |
| 20260902231525 | 98 | 152 | 3.0 | 8.0 | 0.00 | 0.00 | 0.00 | 36 | 1011.6 |
| 20260902231013 | 98 | 268 | 2.0 | 11.0 | 0.00 | 0.00 | 0.00 | 36 | 1011.6 |
| 20260902230517 | 99 | 199 | 3.0 | 11.0 | 0.00 | 0.00 | 0.00 | 34 | 1011.6 |
| 20260902230022 | 99 | 266 | 3.0 | 10.0 | 0.00 | 0.00 | 0.00 | 35 | 1011.6 |
| 20260902225510 | 99 | 252 | 1.0 | 9.0 | 0.00 | 0.00 | 0.00 | 36 | 1011.5 |
| 20260902225012 | 99 | 267 | 2.0 | 11.0 | 0.00 | 0.00 | 0.00 | 33 | 1011.6 |
| 20260902224525 | 99 | 244 | 1.0 | 11.0 | 0.00 | 0.00 | 0.00 | 33 | 1011.7 |
| 20260902224010 | 99 | 243 | 2.0 | 8.0 | 0.00 | 0.00 | 0.00 | 33 | 1011.7 |
| 20260902223509 | 99 | 257 | 2.0 | 9.0 | 0.00 | 0.00 | 0.00 | 33 | 1011.6 |
| 20260902223013 | 99 | 298 | 3.0 | 10.0 | 0.00 | 0.00 | 0.00 | 33 | 1011.7 |
| 20260902222509 | 99 | 318 | 3.0 | 10.0 | 0.00 | 0.00 | 0.00 | 34 | 1011.8 |
| 20260902222009 | 99 | 165 | 3.0 | 9.0 | 0.00 | 0.00 | 0.00 | 33 | 1011.9 |
| 20260902221523 | 100 | 237 | 3.0 | 8.0 | 0.00 | 0.00 | 0.00 | 33 | 1011.9 |
| 20260902221010 | 100 | 260 | 4.0 | 8.0 | 0.00 | 0.00 | 0.00 | 33 | 1011.9 |
| 20260902220510 | 100 | 282 | 2.0 | 7.0 | 0.00 | 0.00 | 0.00 | 34 | 1011.9 |
| 20260902220028 | 100 | 296 | 2.0 | 10.0 | 0.00 | 0.00 | 0.00 | 34 | 1011.9 |
| 20260902215510 | 100 | 247 | 2.0 | 10.0 | 0.00 | 0.00 | 0.00 | 33 | 1012.0 |
| 20260902215011 | 100 | 76 | 2.0 | 9.0 | 0.00 | 0.00 | 0.00 | 34 | 1012.1 |
| 20260902214529 | 100 | 257 | 2.0 | 9.0 | 0.00 | 0.00 | 0.00 | 33 | 1012.1 |
| 20260902214010 | 99 | 257 | 2.0 | 11.0 | 0.00 | 0.00 | 0.00 | 34 | 1012.1 |
| 20260902213510 | 100 | 163 | 2.0 | 11.0 | 0.00 | 0.00 | 0.00 | 33 | 1012.2 |
| 20260902213029 | 101 | 281 | 1.0 | 6.0 | 0.00 | 0.00 | 0.00 | 33 | 1012.3 |
| 20260902212512 | 100 | 276 | 1.0 | 10.0 | 0.00 | 0.00 | 0.00 | 34 | 1012.3 |
| 20260902212005 | 100 | 274 | 3.0 | 10.0 | 0.00 | 0.00 | 0.00 | 34 | 1012.3 |
| 20260902211516 | 100 | 281 | 3.0 | 9.0 | 0.00 | 0.00 | 0.00 | 32 | 1012.4 |
| 20260902211007 | 100 | 290 | 3.0 | 9.0 | 0.00 | 0.00 | 0.00 | 33 | 1012.5 |
| 20260902210509 | 100 | 242 | 2.0 | 11.0 | 0.00 | 0.00 | 0.00 | 32 | 1012.5 |
| 20260902210029 | 100 | 230 | 1.0 | 11.0 | 0.00 | 0.00 | 0.00 | 33 | 1012.6 |
| 20260902205509 | 99 | 44 | 3.0 | 9.0 | 0.00 | 0.00 | 0.00 | 32 | 1012.7 |
| 20260902205014 | 100 | 267 | 2.0 | 7.0 | 0.00 | 0.00 | 0.00 | 33 | 1012.7 |
| 20260902204526 | 100 | 269 | 0.0 | 9.0 | 0.00 | 0.00 | 0.00 | 33 | 1012.8 |
| 20260902204012 | 100 | 293 | 3.0 | 9.0 | 0.00 | 0.00 | 0.00 | 32 | 1012.9 |
| 20260902203512 | 100 | 312 | 2.0 | 9.0 | 0.00 | 0.00 | 0.00 | 33 | 1012.9 |
| 20260902203033 | 99 | 258 | 2.0 | 9.0 | 0.00 | 0.00 | 0.00 | 35 | 1013.0 |
| 20260902202513 | 99 | 261 | 2.0 | 8.0 | 0.00 | 0.00 | 0.00 | 35 | 1013.0 |
| 20260902202014 | 100 | 87 | 2.0 | 9.0 | 0.00 | 0.00 | 0.00 | 35 | 1013.2 |
| 20260902201527 | 100 | 250 | 2.0 | 9.0 | 0.00 | 0.00 | 0.00 | 36 | 1013.2 |
| 20260902201013 | 100 | 250 | 3.0 | 11.0 | 0.00 | 0.00 | 0.00 | 35 | 1013.2 |
| 20260902200508 | 100 | 271 | 4.0 | 11.0 | 0.00 | 0.00 | 0.00 | 35 | 1013.3 |
| 20260902200016 | 100 | 300 | 2.0 | 9.0 | 0.00 | 0.00 | 0.00 | 37 | 1013.4 |
| 20260902195508 | 100 | 272 | 4.0 | 9.0 | 0.00 | 0.00 | 0.00 | 36 | 1013.3 |
| 20260902195009 | 100 | 257 | 3.0 | 8.0 | 0.00 | 0.00 | 0.00 | 35 | 1013.5 |
| 20260902194528 | 100 | 287 | 3.0 | 9.0 | 0.00 | 0.00 | 0.00 | 37 | 1013.6 |
| 20260902194010 | 99 | 270 | 2.0 | 9.0 | 0.00 | 0.00 | 0.00 | 36 | 1013.6 |
| 20260902193516 | 99 | 247 | 3.0 | 9.0 | 0.00 | 0.00 | 0.00 | 37 | 1013.7 |
| 20260902193029 | 99 | 303 | 2.0 | 10.0 | 0.00 | 0.00 | 0.00 | 38 | 1013.8 |
| 20260902192514 | 99 | 143 | 3.0 | 10.0 | 0.00 | 0.00 | 0.00 | 36 | 1013.9 |
| 20260902192012 | 99 | 300 | 3.0 | 10.0 | 0.00 | 0.00 | 0.00 | 36 | 1013.9 |
| 20260902191538 | 99 | 217 | 2.0 | 8.0 | 0.00 | 0.00 | 0.00 | 37 | 1014.0 |
| 20260902191019 | 99 | 179 | 3.0 | 10.0 | 0.00 | 0.00 | 0.00 | 38 | 1014.0 |
| 20260902190521 | 99 | 259 | 3.0 | 10.0 | 0.00 | 0.00 | 0.00 | 38 | 1014.1 |
| 20260902190029 | 98 | 205 | 2.0 | 12.0 | 0.00 | 0.00 | 0.00 | 39 | 1014.2 |
| 20260902185516 | 98 | 274 | 3.0 | 12.0 | 0.00 | 0.00 | 0.00 | 39 | 1014.2 |
| 20260902185016 | 98 | 269 | 1.0 | 10.0 | 0.00 | 0.00 | 0.00 | 40 | 1014.3 |
| 20260902184533 | 98 | 271 | 3.0 | 10.0 | 0.00 | 0.00 | 0.00 | 40 | 1014.4 |
| 20260902184011 | 98 | 167 | 3.0 | 10.0 | 0.00 | 0.00 | 0.00 | 40 | 1014.4 |
| 20260902183511 | 98 | 261 | 4.0 | 10.0 | 0.00 | 0.00 | 0.00 | 41 | 1014.5 |
| 20260902183027 | 98 | 295 | 2.0 | 10.0 | 0.00 | 0.00 | 0.00 | 42 | 1014.5 |
| 20260902182515 | 97 | 242 | 3.0 | 11.0 | 0.00 | 0.00 | 0.00 | 41 | 1014.6 |
| 20260902182014 | 97 | 254 | 3.0 | 11.0 | 0.00 | 0.00 | 0.00 | 41 | 1014.7 |
| 20260902181531 | 97 | 255 | 3.0 | 11.0 | 0.00 | 0.00 | 0.00 | 41 | 1014.7 |
| 20260902181015 | 97 | 268 | 5.0 | 11.0 | 0.00 | 0.00 | 0.00 | 41 | 1014.9 |
| 20260902180503 | 97 | 273 | 4.0 | 11.0 | 0.00 | 0.00 | 0.00 | 41 | 1014.8 |
| 20260902180010 | 97 | 286 | 3.0 | 11.0 | 0.00 | 0.00 | 0.00 | 43 | 1015.0 |
| 20260902175504 | 97 | 257 | 3.0 | 9.0 | 0.00 | 0.00 | 0.00 | 42 | 1015.0 |
| 20260902175010 | 96 | 271 | 2.0 | 8.0 | 0.00 | 0.00 | 0.00 | 42 | 1015.0 |
| 20260902174516 | 96 | 290 | 2.0 | 11.0 | 0.00 | 0.00 | 0.00 | 43 | 1015.2 |
| 20260902174010 | 96 | 255 | 3.0 | 11.0 | 0.00 | 0.00 | 0.00 | 42 | 1015.3 |
| 20260902173508 | 96 | 198 | 3.0 | 11.0 | 0.00 | 0.00 | 0.00 | 44 | 1015.3 |
| 20260902173022 | 96 | 250 | 2.0 | 9.0 | 0.00 | 0.00 | 0.00 | 45 | 1015.3 |
| 20260902172511 | 95 | 340 | 4.0 | 9.0 | 0.00 | 0.00 | 0.00 | 43 | 1015.4 |
| 20260902172012 | 95 | 248 | 2.0 | 9.0 | 0.00 | 0.00 | 0.00 | 45 | 1015.4 |
| 20260902171506 | 95 | 257 | 4.0 | 11.0 | 0.00 | 0.00 | 0.00 | 46 | 1015.5 |
| 20260902171006 | 94 | 126 | 3.0 | 11.0 | 0.00 | 0.00 | 0.00 | 46 | 1015.5 |
| 20260902170503 | 94 | 309 | 3.0 | 13.0 | 0.00 | 0.00 | 0.00 | 46 | 1015.6 |
| 20260902170007 | 94 | 38 | 2.0 | 13.0 | 0.00 | 0.00 | 0.00 | 46 | 1015.6 |
| 20260902165505 | 94 | 238 | 2.0 | 8.0 | 0.00 | 0.00 | 0.00 | 49 | 1015.7 |
| 20260902165005 | 93 | 146 | 3.0 | 8.0 | 0.00 | 0.00 | 0.00 | 47 | 1015.8 |
| 20260902164511 | 93 | 269 | 2.0 | 9.0 | 0.00 | 0.00 | 0.00 | 48 | 1015.8 |
| 20260902164010 | 93 | 44 | 3.0 | 10.0 | 0.00 | 0.00 | 0.00 | 48 | 1015.9 |
| 20260902163506 | 93 | 246 | 3.0 | 12.0 | 0.00 | 0.00 | 0.00 | 49 | 1015.9 |
| 20260902163015 | 92 | 256 | 4.0 | 12.0 | 0.00 | 0.00 | 0.00 | 48 | 1016.0 |
| 20260902162507 | 93 | 252 | 3.0 | 9.0 | 0.00 | 0.00 | 0.00 | 49 | 1016.0 |
| 20260902162009 | 92 | 202 | 2.0 | 10.0 | 0.00 | 0.00 | 0.00 | 51 | 1016.0 |
| 20260902161527 | 92 | 205 | 2.0 | 10.0 | 0.00 | 0.00 | 0.00 | 50 | 1016.1 |
| 20260902161011 | 91 | 156 | 1.0 | 9.0 | 0.00 | 0.00 | 0.00 | 52 | 1016.1 |
| 20260902160516 | 91 | 232 | 3.0 | 9.0 | 0.00 | 0.00 | 0.00 | 52 | 1016.1 |
| 20260902160027 | 91 | 263 | 2.0 | 10.0 | 0.00 | 0.00 | 0.00 | 52 | 1016.2 |
| 20260902155504 | 90 | 107 | 3.0 | 10.0 | 0.00 | 0.00 | 0.00 | 52 | 1016.1 |
| 20260902155004 | 90 | 258 | 2.0 | 8.0 | 0.00 | 0.00 | 0.00 | 52 | 1016.2 |
| 20260902154522 | 90 | 269 | 2.0 | 8.0 | 0.00 | 0.00 | 0.00 | 53 | 1016.1 |
| 20260902154006 | 89 | 273 | 2.0 | 11.0 | 0.00 | 0.00 | 0.00 | 53 | 1016.2 |
| 20260902153508 | 89 | 286 | 2.0 | 11.0 | 0.00 | 0.00 | 0.00 | 54 | 1016.2 |
| 20260902153022 | 89 | 203 | 4.0 | 11.0 | 0.00 | 0.00 | 0.00 | 54 | 1016.2 |
| 20260902152507 | 88 | 172 | 1.0 | 12.0 | 0.00 | 0.00 | 0.00 | 55 | 1016.2 |
| 20260902152009 | 88 | 317 | 4.0 | 12.0 | 0.00 | 0.00 | 0.00 | 55 | 1016.2 |
| 20260902151521 | 88 | 244 | 3.0 | 10.0 | 0.00 | 0.00 | 0.00 | 55 | 1016.2 |
| 20260902151009 | 88 | 267 | 2.0 | 10.0 | 0.00 | 0.00 | 0.00 | 57 | 1016.2 |
| 20260902150512 | 87 | 223 | 3.0 | 10.0 | 0.00 | 0.00 | 0.00 | 56 | 1016.2 |
| 20260902150026 | 87 | 236 | 2.0 | 10.0 | 0.00 | 0.00 | 0.00 | 57 | 1016.1 |
| 20260902145513 | 87 | 352 | 3.0 | 10.0 | 0.00 | 0.00 | 0.00 | 56 | 1016.1 |
| 20260902145014 | 86 | 262 | 1.0 | 10.0 | 0.00 | 0.00 | 0.00 | 58 | 1016.1 |
| 20260902144538 | 86 | 257 | 2.0 | 6.0 | 0.00 | 0.00 | 0.00 | 59 | 1016.1 |
| 20260902144003 | 85 | 215 | 2.0 | 9.0 | 0.00 | 0.00 | 0.00 | 59 | 1016.2 |
| 20260902143504 | 85 | 248 | 2.0 | 9.0 | 0.00 | 0.00 | 0.00 | 59 | 1016.2 |
| 20260902143014 | 84 | 290 | 1.0 | 6.0 | 0.00 | 0.00 | 0.00 | 61 | 1016.2 |
| 20260902142507 | 84 | 263 | 1.0 | 6.0 | 0.00 | 0.00 | 0.00 | 62 | 1016.1 |
| 20260902142008 | 83 | 288 | 1.0 | 6.0 | 0.00 | 0.00 | 0.00 | 63 | 1016.1 |
| 20260902141518 | 83 | 242 | 1.0 | 7.0 | 0.00 | 0.00 | 0.00 | 63 | 1016.2 |
| 20260902141009 | 82 | 265 | 1.0 | 7.0 | 0.00 | 0.00 | 0.00 | 65 | 1016.2 |
| 20260902140510 | 81 | 240 | 2.0 | 7.0 | 0.00 | 0.00 | 0.00 | 65 | 1016.3 |
| 20260902140022 | 81 | 271 | 0.0 | 8.0 | 0.00 | 0.00 | 0.00 | 66 | 1016.2 |
| 20260902135511 | 80 | 271 | 1.0 | 8.0 | 0.00 | 0.00 | 0.00 | 67 | 1016.2 |
| 20260902135013 | 80 | 289 | 0.0 | 8.0 | 0.00 | 0.00 | 0.00 | 68 | 1016.1 |
| 20260902134530 | 79 | 256 | 2.0 | 8.0 | 0.00 | 0.00 | 0.00 | 69 | 1016.2 |
| 20260902134015 | 78 | 182 | 2.0 | 4.0 | 0.00 | 0.00 | 0.00 | 72 | 1016.1 |
| 20260902133515 | 76 | 165 | 1.0 | 4.0 | 0.00 | 0.00 | 0.00 | 74 | 1016.2 |
| 20260902133029 | 75 | 187 | 0.0 | 2.0 | 0.00 | 0.00 | 0.00 | 76 | 1016.2 |
| 20260902132503 | 74 | 187 | 0.0 | 2.0 | 0.00 | 0.00 | 0.00 | 78 | 1016.2 |
| 20260902132007 | 73 | 187 | 0.0 | 2.0 | 0.00 | 0.00 | 0.00 | 80 | 1016.2 |
| 20260902131515 | 72 | 202 | 0.0 | 1.0 | 0.00 | 0.00 | 0.00 | 81 | 1016.2 |
| 20260902131007 | 71 | 202 | 0.0 | 1.0 | 0.00 | 0.00 | 0.00 | 83 | 1016.1 |
| 20260902130507 | 71 | 202 | 0.0 | 0.0 | 0.00 | 0.00 | 0.00 | 85 | 1016.0 |
| 20260902130024 | 71 | 202 | 0.0 | 0.0 | 0.00 | 0.00 | 0.00 | 85 | 1016.0 |
| 20260902125512 | 70 | 202 | 0.0 | 0.0 | 0.00 | 0.00 | 0.00 | 85 | 1016.0 |
| 20260902125012 | 70 | 202 | 0.0 | 0.0 | 0.00 | 0.00 | 0.00 | 85 | 1016.0 |
| 20260902124527 | 70 | 202 | 0.0 | 0.0 | 0.00 | 0.00 | 0.00 | 84 | 1016.0 |
| 20260902124011 | 70 | 202 | 0.0 | 0.0 | 0.00 | 0.00 | 0.00 | 83 | 1015.9 |
| 20260902123515 | 70 | 202 | 0.0 | 0.0 | 0.00 | 0.00 | 0.00 | 82 | 1015.8 |
| 20260902123039 | 70 | 202 | 0.0 | 0.0 | 0.00 | 0.00 | 0.00 | 82 | 1015.9 |
| 20260902122515 | 70 | 202 | 0.0 | 0.0 | 0.00 | 0.00 | 0.00 | 81 | 1015.8 |
| 20260902122015 | 70 | 202 | 0.0 | 0.0 | 0.00 | 0.00 | 0.00 | 81 | 1015.8 |
| 20260902121532 | 70 | 202 | 0.0 | 0.0 | 0.00 | 0.00 | 0.00 | 81 | 1015.7 |
| 20260902121009 | 70 | 202 | 0.0 | 0.0 | 0.00 | 0.00 | 0.00 | 81 | 1015.7 |
| 20260902120507 | 70 | 202 | 0.0 | 0.0 | 0.00 | 0.00 | 0.00 | 80 | 1015.6 |
| 20260902120019 | 70 | 202 | 0.0 | 0.0 | 0.00 | 0.00 | 0.00 | 80 | 1015.6 |
| 20260902115509 | 70 | 202 | 0.0 | 0.0 | 0.00 | 0.00 | 0.00 | 79 | 1015.6 |
| 20260902115010 | 70 | 202 | 0.0 | 0.0 | 0.00 | 0.00 | 0.00 | 79 | 1015.5 |
| 20260902114524 | 70 | 202 | 0.0 | 0.0 | 0.00 | 0.00 | 0.00 | 80 | 1015.5 |
| 20260902114013 | 70 | 202 | 0.0 | 0.0 | 0.00 | 0.00 | 0.00 | 80 | 1015.4 |
| 20260902113513 | 70 | 202 | 0.0 | 0.0 | 0.00 | 0.00 | 0.00 | 79 | 1015.4 |
| 20260902113027 | 70 | 202 | 0.0 | 0.0 | 0.00 | 0.00 | 0.00 | 78 | 1015.3 |
| 20260902112513 | 70 | 202 | 0.0 | 0.0 | 0.00 | 0.00 | 0.00 | 78 | 1015.3 |
| 20260902112020 | 70 | 202 | 0.0 | 0.0 | 0.00 | 0.00 | 0.00 | 78 | 1015.2 |
| 20260902111541 | 70 | 202 | 0.0 | 0.0 | 0.00 | 0.00 | 0.00 | 77 | 1015.2 |
| 20260902111017 | 70 | 202 | 0.0 | 0.0 | 0.00 | 0.00 | 0.00 | 77 | 1015.3 |
| 20260902110515 | 71 | 202 | 0.0 | 0.0 | 0.00 | 0.00 | 0.00 | 77 | 1015.3 |
| 20260902110035 | 71 | 202 | 0.0 | 0.0 | 0.00 | 0.00 | 0.00 | 77 | 1015.2 |
| 20260902105506 | 71 | 202 | 0.0 | 0.0 | 0.00 | 0.00 | 0.00 | 76 | 1015.2 |
| 20260902105006 | 71 | 202 | 0.0 | 0.0 | 0.00 | 0.00 | 0.00 | 76 | 1015.2 |
| 20260902104522 | 71 | 202 | 0.0 | 0.0 | 0.00 | 0.00 | 0.00 | 76 | 1015.2 |
| 20260902104010 | 71 | 202 | 0.0 | 0.0 | 0.00 | 0.00 | 0.00 | 76 | 1015.3 |
| 20260902103510 | 71 | 202 | 0.0 | 0.0 | 0.00 | 0.00 | 0.00 | 75 | 1015.3 |
| 20260902103027 | 71 | 202 | 0.0 | 0.0 | 0.00 | 0.00 | 0.00 | 75 | 1015.1 |
| 20260902102513 | 72 | 202 | 0.0 | 0.0 | 0.00 | 0.00 | 0.00 | 74 | 1015.1 |
| 20260902102013 | 72 | 202 | 0.0 | 0.0 | 0.00 | 0.00 | 0.00 | 74 | 1015.0 |
| 20260902101530 | 72 | 202 | 0.0 | 0.0 | 0.00 | 0.00 | 0.00 | 74 | 1015.0 |
| 20260902101018 | 72 | 202 | 0.0 | 0.0 | 0.00 | 0.00 | 0.00 | 74 | 1015.1 |
| 20260902100514 | 72 | 202 | 0.0 | 0.0 | 0.00 | 0.00 | 0.00 | 73 | 1015.0 |
| 20260902100032 | 73 | 202 | 0.0 | 0.0 | 0.00 | 0.00 | 0.00 | 72 | 1015.0 |
| 20260902095513 | 73 | 202 | 0.0 | 0.0 | 0.00 | 0.00 | 0.00 | 71 | 1015.0 |
| 20260902095018 | 73 | 202 | 0.0 | 0.0 | 0.00 | 0.00 | 0.00 | 71 | 1014.9 |
| 20260902094534 | 73 | 202 | 0.0 | 0.0 | 0.00 | 0.00 | 0.00 | 71 | 1015.0 |
| 20260902094010 | 73 | 202 | 0.0 | 0.0 | 0.00 | 0.00 | 0.00 | 71 | 1015.0 |
| 20260902093513 | 73 | 202 | 0.0 | 0.0 | 0.00 | 0.00 | 0.00 | 71 | 1015.0 |
| 20260902093025 | 73 | 202 | 0.0 | 0.0 | 0.00 | 0.00 | 0.00 | 71 | 1014.9 |
| 20260902092510 | 73 | 202 | 0.0 | 0.0 | 0.00 | 0.00 | 0.00 | 71 | 1014.9 |
| 20260902092013 | 73 | 202 | 0.0 | 0.0 | 0.00 | 0.00 | 0.00 | 71 | 1014.9 |
| 20260902091528 | 73 | 202 | 0.0 | 0.0 | 0.00 | 0.00 | 0.00 | 70 | 1015.0 |
| 20260902091012 | 74 | 202 | 0.0 | 0.0 | 0.00 | 0.00 | 0.00 | 70 | 1014.8 |
| 20260902090503 | 74 | 202 | 0.0 | 0.0 | 0.00 | 0.00 | 0.00 | 70 | 1014.9 |
| 20260902090009 | 74 | 202 | 0.0 | 0.0 | 0.00 | 0.00 | 0.00 | 69 | 1014.9 |
| 20260902085504 | 74 | 202 | 0.0 | 0.0 | 0.00 | 0.00 | 0.00 | 69 | 1014.7 |
| 20260902085004 | 75 | 202 | 0.0 | 0.0 | 0.00 | 0.00 | 0.00 | 68 | 1014.8 |
| 20260902084514 | 75 | 202 | 0.0 | 0.0 | 0.00 | 0.00 | 0.00 | 67 | 1014.9 |
| 20260902084008 | 75 | 202 | 0.0 | 0.0 | 0.00 | 0.00 | 0.00 | 67 | 1014.7 |
| 20260902083507 | 75 | 202 | 0.0 | 0.0 | 0.00 | 0.00 | 0.00 | 66 | 1014.8 |
| 20260902083018 | 76 | 202 | 0.0 | 0.0 | 0.00 | 0.00 | 0.00 | 66 | 1014.7 |
| 20260902082508 | 76 | 202 | 0.0 | 0.0 | 0.00 | 0.00 | 0.00 | 65 | 1014.8 |
| 20260902082011 | 76 | 202 | 0.0 | 0.0 | 0.00 | 0.00 | 0.00 | 65 | 1014.7 |
| 20260902081525 | 76 | 202 | 0.0 | 0.0 | 0.00 | 0.00 | 0.00 | 64 | 1014.7 |
| 20260902081004 | 77 | 202 | 0.0 | 0.0 | 0.00 | 0.00 | 0.00 | 64 | 1014.7 |
| 20260902080503 | 77 | 202 | 0.0 | 0.0 | 0.00 | 0.00 | 0.00 | 63 | 1014.7 |
| 20260902080004 | 77 | 202 | 0.0 | 0.0 | 0.00 | 0.00 | 0.00 | 63 | 1014.7 |
| 20260902075504 | 77 | 202 | 0.0 | 0.0 | 0.00 | 0.00 | 0.00 | 63 | 1014.7 |
| 20260902075004 | 77 | 202 | 0.0 | 0.0 | 0.00 | 0.00 | 0.00 | 62 | 1014.7 |
| 20260902074512 | 77 | 202 | 0.0 | 0.0 | 0.00 | 0.00 | 0.00 | 62 | 1014.7 |
| 20260902074003 | 77 | 202 | 0.0 | 1.0 | 0.00 | 0.00 | 0.00 | 62 | 1014.6 |
| 20260902073508 | 78 | 202 | 0.0 | 1.0 | 0.00 | 0.00 | 0.00 | 62 | 1014.6 |
| 20260902073016 | 78 | 202 | 0.0 | 1.0 | 0.00 | 0.00 | 0.00 | 62 | 1014.6 |
| 20260902072508 | 78 | 202 | 0.0 | 0.0 | 0.00 | 0.00 | 0.00 | 62 | 1014.7 |
| 20260902072008 | 78 | 202 | 0.0 | 1.0 | 0.00 | 0.00 | 0.00 | 62 | 1014.7 |
| 20260902071523 | 78 | 202 | 0.0 | 1.0 | 0.00 | 0.00 | 0.00 | 61 | 1014.7 |
| 20260902071013 | 78 | 202 | 0.0 | 0.0 | 0.00 | 0.00 | 0.00 | 61 | 1014.6 |
| 20260902070512 | 78 | 202 | 0.0 | 1.0 | 0.00 | 0.00 | 0.00 | 61 | 1014.7 |
| 20260902070029 | 78 | 202 | 0.0 | 1.0 | 0.00 | 0.00 | 0.00 | 61 | 1014.6 |
| 20260902065513 | 78 | 202 | 0.0 | 1.0 | 0.00 | 0.00 | 0.00 | 61 | 1014.7 |
| 20260902065005 | 78 | 146 | 0.0 | 0.0 | 0.00 | 0.00 | 0.00 | 61 | 1014.7 |
| 20260902064508 | 78 | 146 | 0.0 | 0.0 | 0.00 | 0.00 | 0.00 | 61 | 1014.7 |
| 20260902064003 | 78 | 146 | 0.0 | 0.0 | 0.00 | 0.00 | 0.00 | 61 | 1014.7 |
| 20260902063504 | 78 | 146 | 0.0 | 0.0 | 0.00 | 0.00 | 0.00 | 60 | 1014.7 |
| 20260902063017 | 78 | 169 | 0.0 | 1.0 | 0.00 | 0.00 | 0.00 | 60 | 1014.7 |
| 20260902062510 | 78 | 169 | 0.0 | 1.0 | 0.00 | 0.00 | 0.00 | 61 | 1014.7 |
| 20260902062007 | 79 | 169 | 0.0 | 1.0 | 0.00 | 0.00 | 0.00 | 60 | 1014.6 |
| 20260902061523 | 79 | 169 | 0.0 | 0.0 | 0.00 | 0.00 | 0.00 | 60 | 1014.7 |
| 20260902061013 | 79 | 169 | 0.0 | 5.0 | 0.00 | 0.00 | 0.00 | 60 | 1014.6 |
| 20260902060510 | 79 | 169 | 0.0 | 5.0 | 0.00 | 0.00 | 0.00 | 59 | 1014.6 |
| 20260902060025 | 79 | 194 | 0.0 | 0.0 | 0.00 | 0.00 | 0.00 | 59 | 1014.6 |
| 20260902055513 | 79 | 194 | 0.0 | 0.0 | 0.00 | 0.00 | 0.00 | 58 | 1014.6 |
| 20260902055013 | 80 | 319 | 0.0 | 0.0 | 0.00 | 0.00 | 0.00 | 58 | 1014.6 |
| 20260902054534 | 80 | 297 | 0.0 | 1.0 | 0.00 | 0.00 | 0.00 | 58 | 1014.6 |
| 20260902054018 | 80 | 297 | 0.0 | 1.0 | 0.00 | 0.00 | 0.00 | 57 | 1014.5 |
| 20260902053502 | 80 | 292 | 0.0 | 1.0 | 0.00 | 0.00 | 0.00 | 57 | 1014.5 |
| 20260902053012 | 80 | 315 | 0.0 | 1.0 | 0.00 | 0.00 | 0.00 | 57 | 1014.5 |
| 20260902052507 | 80 | 281 | 0.0 | 0.0 | 0.00 | 0.00 | 0.00 | 57 | 1014.6 |
| 20260902052007 | 80 | 281 | 0.0 | 0.0 | 0.00 | 0.00 | 0.00 | 57 | 1014.6 |
| 20260902051516 | 80 | 281 | 0.0 | 0.0 | 0.00 | 0.00 | 0.00 | 57 | 1014.5 |
| 20260902051009 | 80 | 267 | 0.0 | 2.0 | 0.00 | 0.00 | 0.00 | 57 | 1014.6 |
| 20260902050509 | 80 | 267 | 0.0 | 2.0 | 0.00 | 0.00 | 0.00 | 58 | 1014.6 |
| 20260902050050 | 79 | 265 | 0.0 | 3.0 | 0.00 | 0.00 | 0.00 | 59 | 1014.6 |
| 20260902045510 | 79 | 306 | 0.0 | 3.0 | 0.00 | 0.00 | 0.00 | 59 | 1014.6 |
| 20260902045012 | 79 | 109 | 0.0 | 0.0 | 0.00 | 0.00 | 0.00 | 59 | 1014.6 |
| 20260902044529 | 79 | 109 | 0.0 | 0.0 | 0.00 | 0.00 | 0.00 | 59 | 1014.6 |
| 20260902044015 | 79 | 111 | 0.0 | 0.0 | 0.00 | 0.00 | 0.00 | 59 | 1014.5 |
| 20260902043515 | 79 | 111 | 0.0 | 0.0 | 0.00 | 0.00 | 0.00 | 59 | 1014.5 |
| 20260902043033 | 79 | 225 | 0.0 | 0.0 | 0.00 | 0.00 | 0.00 | 57 | 1014.5 |
| 20260902042516 | 79 | 225 | 0.0 | 0.0 | 0.00 | 0.00 | 0.00 | 57 | 1014.6 |
| 20260902042004 | 79 | 225 | 0.0 | 1.0 | 0.00 | 0.00 | 0.00 | 57 | 1014.5 |
| 20260902041512 | 79 | 225 | 0.0 | 2.0 | 0.00 | 0.00 | 0.00 | 56 | 1014.5 |
| 20260902041006 | 79 | 225 | 0.0 | 2.0 | 0.00 | 0.00 | 0.00 | 56 | 1014.5 |
| 20260902040507 | 79 | 225 | 0.0 | 0.0 | 0.00 | 0.00 | 0.00 | 55 | 1014.6 |
| 20260902040020 | 80 | 225 | 0.0 | 0.0 | 0.00 | 0.00 | 0.00 | 55 | 1014.5 |
| 20260902035510 | 80 | 225 | 0.0 | 0.0 | 0.00 | 0.00 | 0.00 | 54 | 1014.5 |
| 20260902035010 | 80 | 225 | 0.0 | 0.0 | 0.00 | 0.00 | 0.00 | 54 | 1014.5 |
| 20260902034525 | 80 | 225 | 0.0 | 0.0 | 0.00 | 0.00 | 0.00 | 53 | 1014.5 |
| 20260902034012 | 80 | 238 | 0.0 | 1.0 | 0.00 | 0.00 | 0.00 | 53 | 1014.5 |
| 20260902033512 | 80 | 238 | 0.0 | 2.0 | 0.00 | 0.00 | 0.00 | 53 | 1014.5 |
| 20260902033030 | 80 | 238 | 0.0 | 2.0 | 0.00 | 0.00 | 0.00 | 52 | 1014.4 |
| 20260902032519 | 80 | 209 | 0.0 | 2.0 | 0.00 | 0.00 | 0.00 | 52 | 1014.5 |
| 20260902032015 | 80 | 275 | 0.0 | 1.0 | 0.00 | 0.00 | 0.00 | 52 | 1014.4 |
| 20260902031532 | 80 | 269 | 0.0 | 0.0 | 0.00 | 0.00 | 0.00 | 52 | 1014.4 |
| 20260902031019 | 80 | 269 | 0.0 | 0.0 | 0.00 | 0.00 | 0.00 | 52 | 1014.3 |
| 20260902030507 | 80 | 269 | 0.0 | 0.0 | 0.00 | 0.00 | 0.00 | 52 | 1014.3 |
| 20260902030016 | 80 | 269 | 0.0 | 0.0 | 0.00 | 0.00 | 0.00 | 51 | 1014.3 |
| 20260902025509 | 81 | 269 | 0.0 | 0.0 | 0.00 | 0.00 | 0.00 | 51 | 1014.2 |
| 20260902025011 | 81 | 269 | 0.0 | 0.0 | 0.00 | 0.00 | 0.00 | 50 | 1014.2 |
| 20260902024523 | 81 | 269 | 0.0 | 0.0 | 0.00 | 0.00 | 0.00 | 51 | 1014.1 |
| 20260902024010 | 81 | 269 | 0.0 | 0.0 | 0.00 | 0.00 | 0.00 | 50 | 1014.1 |
| 20260902023512 | 81 | 269 | 0.0 | 0.0 | 0.00 | 0.00 | 0.00 | 49 | 1014.0 |
| 20260902023028 | 82 | 269 | 0.0 | 0.0 | 0.00 | 0.00 | 0.00 | 49 | 1014.0 |
| 20260902022512 | 82 | 269 | 0.0 | 0.0 | 0.00 | 0.00 | 0.00 | 49 | 1013.9 |
| 20260902022016 | 82 | 269 | 0.0 | 0.0 | 0.00 | 0.00 | 0.00 | 48 | 1013.7 |
| 20260902021530 | 83 | 269 | 0.0 | 0.0 | 0.00 | 0.00 | 0.00 | 47 | 1013.7 |
| 20260902021015 | 83 | 269 | 0.0 | 0.0 | 0.00 | 0.00 | 0.00 | 48 | 1013.7 |
| 20260902020515 | 83 | 269 | 0.0 | 0.0 | 0.00 | 0.00 | 0.00 | 47 | 1013.6 |
| 20260902020033 | 84 | 269 | 0.0 | 1.0 | 0.00 | 0.00 | 0.00 | 46 | 1013.5 |
| 20260902015515 | 84 | 269 | 0.0 | 1.0 | 0.00 | 0.00 | 0.00 | 46 | 1013.5 |
| 20260902015007 | 85 | 269 | 0.0 | 0.0 | 0.00 | 0.00 | 0.00 | 45 | 1013.5 |
| 20260902014518 | 85 | 269 | 0.0 | 0.0 | 0.00 | 0.00 | 0.00 | 45 | 1013.4 |
| 20260902014013 | 85 | 269 | 0.0 | 0.0 | 0.00 | 0.00 | 0.00 | 44 | 1013.3 |
| 20260902013508 | 86 | 269 | 0.0 | 1.0 | 0.00 | 0.00 | 0.00 | 44 | 1013.3 |
| 20260902013024 | 86 | 269 | 0.0 | 1.0 | 0.00 | 0.00 | 0.00 | 44 | 1013.2 |
| 20260902012510 | 86 | 269 | 0.0 | 1.0 | 0.00 | 0.00 | 0.00 | 43 | 1013.2 |
| 20260902012012 | 87 | 269 | 0.0 | 1.0 | 0.00 | 0.00 | 0.00 | 43 | 1013.2 |
| 20260902011534 | 88 | 269 | 0.0 | 1.0 | 0.00 | 0.00 | 0.00 | 43 | 1013.2 |
| 20260902011017 | 88 | 269 | 0.0 | 2.0 | 0.00 | 0.00 | 0.00 | 42 | 1013.2 |
| 20260902010513 | 89 | 269 | 0.0 | 2.0 | 0.00 | 0.00 | 0.00 | 41 | 1013.3 |
| 20260902010031 | 90 | 212 | 0.0 | 0.0 | 0.00 | 0.00 | 0.00 | 40 | 1013.3 |